Tracking 27382 objects as of 4-Jun-2023
HD Live streaming from Space Station
objects crossing your sky now

FLOCK 4V 3

Track FLOCK 4V 3 now!
10-day predictions
FLOCK 4V 3 is classified as:


NORAD ID: 46322
Int'l Code: 2020-061BC
Perigee: 488.8 km
Apogee: 492.3 km
Inclination: 97.4 °
Period: 94.3 minutes
Semi major axis: 6861 km
RCS: Unknown
Launch date: September 3, 2020
Source: United States (US)
Launch site: FRENCH GUIANA (FRGUI)
Your satellite tracking list
Your tracking list is empty




NASA's NSSDC Master Catalog

Two Line Element Set (TLE):
1 46322U 20061BC  23155.26591115  .00025258  00000-0  94074-3 0  9991
2 46322  97.4071 225.1818 0002547  74.6409 285.5111 15.27449601151898
Source of the keplerian elements: AFSPC